• In United Kingdom
  • List of Countries
  • For 7 days
  • Water Temperature
  • Satellite Maps
  • Weather Map
  • Weather Widgets
  • user-avatar
    Login

    Hourly Weather Stirling

    Today, 22 September, Saturday

    Time Temperature Precipitation Wind Pressure Humidity
    00:00 +6°C° 0 mm 5 mps 756 mmHg 85%
    01:00 +6°C° 0 mm 5 mps 756 mmHg 85%
    02:00 +6°C° 0 mm 5 mps 756 mmHg 85%
    03:00 +6°C° 0 mm 5 mps 757 mmHg 85%
    04:00 +6°C° 0 mm 5 mps 757 mmHg 85%
    05:00 +6°C° 0 mm 5 mps 757 mmHg 85%
    06:00 +6°C° 0 mm 4 mps 757 mmHg 87%
    07:00 +7°C° 0 mm 5 mps 757 mmHg 82%
    08:00 +8°C° 0 mm 6 mps 758 mmHg 77%
    09:00 +9°C° 0 mm 6 mps 758 mmHg 72%
    10:00 +10°C° 0 mm 6 mps 758 mmHg 69%
    11:00 +11°C° 0 mm 6 mps 758 mmHg 65%
    12:00 +13°C° 0 mm 6 mps 759 mmHg 61%
    13:00 +13°C° 0 mm 5 mps 759 mmHg 61%
    14:00 +13°C° 0 mm 5 mps 759 mmHg 61%
    15:00 +13°C° 0 mm 5 mps 759 mmHg 61%
    16:00 +11°C° 0 mm 4 mps 759 mmHg 66%
    17:00 +10°C° 0 mm 4 mps 759 mmHg 72%
    18:00 +9°C° 0 mm 3 mps 759 mmHg 77%
    19:00 +8°C° 0 mm 3 mps 760 mmHg 81%
    20:00 +7°C° 0 mm 2 mps 760 mmHg 84%
    21:00 +6°C° 0 mm 2 mps 761 mmHg 88%
    22:00 +6°C° 0 mm 2 mps 761 mmHg 89%
    23:00 +5°C° 0 mm 2 mps 761 mmHg 90%

    Tomorrow, 23 September, Sunday

    Time Temperature Precipitation Wind Pressure Humidity
    00:00 +5°C° 0 mm 2 mps 761 mmHg 92%
    01:00 +5°C° 0 mm 2 mps 761 mmHg 92%
    02:00 +5°C° 0 mm 2 mps 761 mmHg 93%
    03:00 +5°C° 0 mm 1 mps 761 mmHg 93%
    04:00 +5°C° 0 mm 1 mps 761 mmHg 93%
    05:00 +5°C° 0 mm 1 mps 761 mmHg 93%
    06:00 +5°C° 0 mm 1 mps 762 mmHg 93%
    07:00 +7°C° 0 mm 1 mps 762 mmHg 88%
    08:00 +8°C° 0 mm 1 mps 762 mmHg 82%
    09:00 +10°C° 0 mm 1 mps 763 mmHg 76%
    10:00 +11°C° 0.2 mm 1 mps 763 mmHg 72%
    11:00 +12°C° 0.2 mm 1 mps 764 mmHg 67%
    12:00 +13°C° 0.2 mm 1 mps 764 mmHg 63%
    13:00 +13°C° 0.3 mm 2 mps 765 mmHg 64%
    14:00 +12°C° 0.3 mm 3 mps 765 mmHg 65%
    15:00 +12°C° 0.3 mm 3 mps 766 mmHg 66%
    16:00 +11°C° 0.2 mm 3 mps 767 mmHg 72%
    17:00 +10°C° 0.2 mm 4 mps 767 mmHg 77%
    18:00 +8°C° 0.2 mm 4 mps 768 mmHg 82%
    19:00 +7°C° 0 mm 4 mps 769 mmHg 83%
    20:00 +6°C° 0 mm 4 mps 770 mmHg 85%
    21:00 +5°C° 0 mm 3 mps 771 mmHg 86%
    22:00 +5°C° 0 mm 3 mps 771 mmHg 87%
    23:00 +4°C° 0 mm 3 mps 772 mmHg 88%

    Day after tomorrow, 24 September, Monday

    Time Temperature Precipitation Wind Pressure Humidity
    00:00 +4°C° 0 mm 3 mps 772 mmHg 89%
    01:00 +4°C° 0 mm 3 mps 773 mmHg 90%
    02:00 +4°C° 0 mm 3 mps 773 mmHg 90%
    03:00 +4°C° 0 mm 3 mps 774 mmHg 91%
    04:00 +4°C° 0 mm 3 mps 774 mmHg 91%
    05:00 +4°C° 0 mm 3 mps 774 mmHg 91%
    06:00 +4°C° 0 mm 3 mps 774 mmHg 92%
    07:00 +7°C° 0 mm 3 mps 775 mmHg 86%
    08:00 +7°C° 0 mm 4 mps 775 mmHg 81%
    09:00 +10°C° 0 mm 4 mps 775 mmHg 75%
    10:00 +11°C° 0 mm 4 mps 776 mmHg 73%
    11:00 +12°C° 0 mm 4 mps 776 mmHg 70%
    12:00 +12°C° 0 mm 5 mps 776 mmHg 67%
    13:00 +13°C° 0 mm 5 mps 776 mmHg 66%
    14:00 +13°C° 0 mm 5 mps 776 mmHg 65%
    15:00 +13°C° 0 mm 5 mps 776 mmHg 64%
    16:00 +12°C° 0 mm 4 mps 776 mmHg 71%
    17:00 +11°C° 0 mm 3 mps 776 mmHg 78%
    18:00 +9°C° 0 mm 3 mps 776 mmHg 84%
    19:00 +9°C° 0 mm 3 mps 776 mmHg 87%
    20:00 +8°C° 0 mm 2 mps 777 mmHg 90%
    21:00 +7°C° 0 mm 2 mps 777 mmHg 93%
    22:00 +7°C° 0 mm 2 mps 777 mmHg 93%
    23:00 +6°C° 0 mm 2 mps 777 mmHg 93%

    25 September, Tuesday

    Time Temperature Precipitation Wind Pressure Humidity
    00:00 +6°C° 0 mm 2 mps 776 mmHg 94%
    01:00 +6°C° 0 mm 2 mps 776 mmHg 94%
    02:00 +6°C° 0 mm 2 mps 776 mmHg 94%
    03:00 +6°C° 0 mm 2 mps 775 mmHg 94%
    04:00 +7°C° 0 mm 3 mps 775 mmHg 93%
    05:00 +7°C° 0 mm 3 mps 775 mmHg 93%
    06:00 +7°C° 0 mm 3 mps 774 mmHg 93%
    07:00 +7°C° 0 mm 4 mps 774 mmHg 87%
    08:00 +8°C° 0 mm 6 mps 773 mmHg 81%
    09:00 +10°C° 0 mm 7 mps 773 mmHg 75%
    10:00 +11°C° 0 mm 7 mps 772 mmHg 72%
    11:00 +12°C° 0 mm 8 mps 772 mmHg 69%
    12:00 +12°C° 0 mm 8 mps 771 mmHg 67%
    13:00 +12°C° 0 mm 9 mps 770 mmHg 68%
    14:00 +12°C° 0 mm 9 mps 769 mmHg 69%
    15:00 +12°C° 0 mm 9 mps 768 mmHg 70%
    16:00 +12°C° 0.1 mm 8 mps 768 mmHg 74%
    17:00 +11°C° 0.1 mm 8 mps 767 mmHg 77%
    18:00 +11°C° 0.1 mm 8 mps 767 mmHg 81%
    19:00 +11°C° 0.1 mm 8 mps 767 mmHg 83%
    20:00 +11°C° 0.1 mm 8 mps 766 mmHg 85%
    21:00 +12°C° 0.1 mm 8 mps 766 mmHg 87%
    22:00 +12°C° 0.3 mm 8 mps 765 mmHg 88%
    23:00 +12°C° 0.3 mm 9 mps 764 mmHg 88%

    26 September, Wednesday

    Time Temperature Precipitation Wind Pressure Humidity
    00:00 +12°C° 0.3 mm 9 mps 764 mmHg 88%
    01:00 +12°C° 0.6 mm 9 mps 764 mmHg 90%
    02:00 +12°C° 0.6 mm 9 mps 763 mmHg 91%
    03:00 +13°C° 0.6 mm 8 mps 763 mmHg 92%
    04:00 +13°C° 0.5 mm 8 mps 763 mmHg 93%
    05:00 +15°C° 0.5 mm 8 mps 763 mmHg 93%
    06:00 +15°C° 0.5 mm 7 mps 763 mmHg 94%
    07:00 +15°C° 0.4 mm 7 mps 763 mmHg 94%
    08:00 +15°C° 0.4 mm 7 mps 763 mmHg 94%
    09:00 +15°C° 0.4 mm 6 mps 764 mmHg 94%
    10:00 +15°C° 0.3 mm 6 mps 764 mmHg 94%
    11:00 +16°C° 0.3 mm 7 mps 764 mmHg 94%
    12:00 +16°C° 0.3 mm 7 mps 764 mmHg 93%
    13:00 +16°C° 0.2 mm 7 mps 764 mmHg 93%
    14:00 +16°C° 0.2 mm 7 mps 764 mmHg 92%
    15:00 +16°C° 0.2 mm 7 mps 764 mmHg 92%
    16:00 +16°C° 0.3 mm 7 mps 764 mmHg 92%
    17:00 +15°C° 0.3 mm 6 mps 765 mmHg 93%
    18:00 +15°C° 0.3 mm 6 mps 765 mmHg 93%
    19:00 +14°C° 0.1 mm 5 mps 766 mmHg 93%
    20:00 +14°C° 0.1 mm 4 mps 766 mmHg 92%
    21:00 +13°C° 0.1 mm 4 mps 767 mmHg 92%
    22:00 +12°C° 0 mm 4 mps 767 mmHg 92%
    23:00 +12°C° 0 mm 3 mps 767 mmHg 91%

    27 September, Thursday

    Time Temperature Precipitation Wind Pressure Humidity
    00:00 +11°C° 0 mm 3 mps 768 mmHg 91%
    01:00 +11°C° 0 mm 3 mps 768 mmHg 91%
    02:00 +11°C° 0 mm 3 mps 768 mmHg 92%
    03:00 +10°C° 0 mm 3 mps 768 mmHg 92%
    04:00 +10°C° 0 mm 3 mps 768 mmHg 92%
    05:00 +10°C° 0 mm 3 mps 769 mmHg 92%
    06:00 +10°C° 0 mm 2 mps 769 mmHg 92%
    07:00 +10°C° 0.1 mm 3 mps 769 mmHg 89%
    08:00 +11°C° 0.1 mm 3 mps 770 mmHg 86%
    09:00 +11°C° 0.1 mm 3 mps 770 mmHg 83%
    10:00 +11°C° 0.1 mm 3 mps 771 mmHg 79%
    11:00 +12°C° 0.1 mm 3 mps 771 mmHg 75%
    12:00 +13°C° 0.1 mm 3 mps 772 mmHg 71%
    13:00 +13°C° 0 mm 3 mps 772 mmHg 69%
    14:00 +13°C° 0 mm 3 mps 772 mmHg 67%
    15:00 +14°C° 0 mm 3 mps 772 mmHg 65%
    16:00 +12°C° 0 mm 3 mps 772 mmHg 70%
    17:00 +11°C° 0 mm 3 mps 772 mmHg 76%
    18:00 +10°C° 0 mm 3 mps 772 mmHg 81%
    19:00 +9°C° 0 mm 2 mps 773 mmHg 84%
    20:00 +8°C° 0 mm 2 mps 773 mmHg 87%
    21:00 +7°C° 0 mm 2 mps 773 mmHg 90%
    22:00 +7°C° 0 mm 2 mps 773 mmHg 91%
    23:00 +7°C° 0 mm 2 mps 773 mmHg 92%
    Show more